Home   Weather   Windhoek   Past weeks

Flag for Namibia Past Weather in Windhoek, Namibia — Yesterday and Last 2 Weeks

Now
73 °F

Sunny.


Feels Like: 77 °F
Forecast: 69 / 87 °F
Wind: 3 mph from South

Location: Windhoek

Current Time: Dec 6, 2016 at 8:00:12 am

Latest Report: Dec 6, 2016 at 7:00 am


Visibility: 10 mi

Pressure: 30.15 "Hg (24.84 "Hg at 1680m altitude)

Humidity: 31%

Dew Point: 41 °F

Location of WindhoekLocation

Past Weather in Windhoek — Graph

°F

Windhoek Temperature Yesterday

Maximum temperature yesterday: 88 °F (at 1:00 pm)
Minimum temperature yesterday: 70 °F (at 4:00 am)
Average temperature yesterday: 78 °F

High & Low Weather Summary for the Past Weeks

 TemperatureHumidityPressure
High99 °F (Dec 2, 3:00 pm)94% (Nov 22, 8:00 am)30.30 "Hg (Nov 22, 8:00 am)
Low59 °F (Nov 22, 8:00 am)6% (Dec 2, 9:00 am)30.01 "Hg (Nov 21, 5:00 pm)
Average78 °F33%30.17 "Hg
* Reported Nov 21 5:00 am — Dec 6 5:00 am, Windhoek, Weather by CustomWeather, © 2016

Note: Actual official high and low records may vary slightly from our data, if they occured in-between our weather recording intervals... More about our weather records

Advertising

Windhoek Weather History for the Previous 24 Hours

Scroll right to see more
 ConditionsComfort  
Time TempWeatherWind HumidityBarometerVisibility
5:00 am
Tue, Dec 6
66 °FMild.1 mph49%30.15 "HgN/A
4:00 am64 °FMild.5 mph49%30.15 "HgN/A
3:00 am68 °FMild.2 mph46%30.12 "HgN/A
2:00 am70 °FMild.3 mph40%30.15 "HgN/A
1:00 am72 °FMild.3 mph41%30.18 "HgN/A
12:00 am75 °FMild.8 mph34%30.18 "HgN/A
11:00 pm
Mon, Dec 5
77 °FPleasantly warm.5 mph32%30.18 "HgN/A
10:00 pm79 °FPleasantly warm.3 mph30%30.18 "HgN/A
9:00 pm82 °FPleasantly warm.2 mph17%30.18 "HgN/A
4:00 pm84 °FPartly sunny.9 mph20%30.12 "HgN/A
1:00 pm88 °FPartly sunny.6 mph18%30.21 "HgN/A
12:00 pm86 °FSunny.6 mph19%30.24 "Hg10 mi
11:00 am84 °FSunny.2 mph19%30.21 "Hg10 mi
10:00 am84 °FSunny.5 mph18%30.24 "Hg10 mi
9:00 am84 °FSunny.3 mph20%30.24 "Hg10 mi
8:00 am75 °FSunny.3 mph34%30.24 "Hg10 mi
Weather by CustomWeather, © 2016

See weather overviewHow to use our weather pages